Weather History for KBIS - December, 2012

Change the Weather History Date:

Saturday, December 22, 2012

  Actual Average Record
Temperature  
Mean Temperature 11 °F 14 °F  
Max Temperature 18 °F 24 °F 56 °F (1954)
Min Temperature 4 °F 4 °F -32 °F (1989)
Degree Days  
Heating Degree Days 54 51  
Month to date heating degree days 976 1050  
Since 1 July heating degree days 2973 3036  
Cooling Degree Days 0 0  
Month to date cooling degree days 0 0  
Year to date cooling degree days 599 520  
Moisture  
Dew Point 4 °F    
Average Humidity 81    
Maximum Humidity 91    
Minimum Humidity 70    
Precipitation  
Precipitation T in 0.02 in 0.54 in (1877)
Month to date precipitation 0.43 0.34  
Year to date precipitation 14.70 17.70  
Snow  
Snow T in 0.40 in 5.70 in (1974)
Month to date snowfall 7.6 6.3  
Since 1 July snowfall 18.1 17.5  
Snow Depth 5.00 in    
Sea Level Pressure  
Sea Level Pressure 30.20 in    
Wind  
Wind Speed 8 mph (North)    
Max Wind Speed 16 mph    
Max Gust Speed 22 mph    
Visibility 10 miles    
Events      
T = Trace of Precipitation, MM = Missing Value Source: NWS Daily Summary

Daily Weather History Graph

Daily Weather History Graph

Search for Another Location

Airport or City:

Trip Planner

Search our weather history database for the weather conditions in past years. The results will help you decide how hot, cold, wet, or windy it might be!

Date:

Astronomy

Dec. 22, 2012 Rise Set
Actual Time 8:25 AM CST 4:58 PM CST
Civil Twilight 7:50 AM CST 5:33 PM CST
Nautical Twilight 7:11 AM CST 6:12 PM CST
Astronomical Twilight 6:34 AM CST 6:49 PM CST
Moon 1:27 PM CST (12/22) 3:01 AM CST (12/22)
Length of Visible Light 9h 43m
Length of Day
8h 32m
Waxing Gibbous, 74% of the Moon is Illuminated
Dec 22
Waxing Gibbous
Dec 28
Full
Jan 4
Last Quarter
Jan 11
New
Jan 18
First Quarter

Hourly Weather History & Observations

Time (CST) Temp. Windchill Dew Point Humidity Pressure Visibility Wind Dir Wind Speed Gust Speed Precip Events Conditions
12:52 AM 10.0 °F 3.6 °F 6.1 °F 84% 30.09 in 10.0 mi ENE 3.5 mph - N/A   Clear
1:52 AM 9.0 °F - 5.0 °F 84% 30.10 in 10.0 mi Calm Calm - N/A   Clear
2:52 AM 10.4 °F - 6.8 °F 85% 30.01 in 10.0 mi Calm Calm - N/A   Clear
3:52 AM 9.0 °F 2.4 °F 6.1 °F 88% 30.12 in 10.0 mi West 3.5 mph - N/A   Clear
4:52 AM 17.1 °F 7.6 °F 12.0 °F 81% 30.12 in 10.0 mi North 6.9 mph - N/A   Clear
5:52 AM 15.1 °F 1.8 °F 9.0 °F 77% 30.15 in 10.0 mi North 11.5 mph - N/A   Clear
6:52 AM 12.0 °F -2.7 °F 7.0 °F 80% 30.18 in 10.0 mi North 12.7 mph - N/A   Clear
7:52 AM 9.0 °F -8.5 °F 3.9 °F 80% 30.22 in 10.0 mi NNW 16.1 mph 20.7 mph N/A   Clear
8:52 AM 8.1 °F -5.3 °F 1.9 °F 76% 30.25 in 10.0 mi North 9.2 mph - N/A   Clear
9:52 AM 8.1 °F -6.2 °F 1.9 °F 76% 30.26 in 10.0 mi North 10.4 mph - N/A   Clear
10:52 AM 9.0 °F -6.6 °F 3.0 °F 77% 30.27 in 10.0 mi North 12.7 mph - N/A   Clear
11:52 AM 10.0 °F -5.2 °F 3.0 °F 73% 30.27 in 10.0 mi NNW 12.7 mph - N/A   Clear
12:52 PM 10.9 °F -3.4 °F 3.9 °F 73% 30.25 in 10.0 mi North 11.5 mph - N/A   Clear
1:52 PM 12.9 °F 0.7 °F 5.0 °F 71% 30.25 in 10.0 mi NNW 9.2 mph - N/A   Clear
2:52 PM 14.0 °F 1.2 °F 6.1 °F 71% 30.26 in 10.0 mi North 10.4 mph - N/A   Mostly Cloudy
3:34 PM 12.9 °F -0.2 °F 5.0 °F 71% 30.15 in 10.0 mi North 10.4 mph - 0.00 in   Mostly Cloudy
3:45 PM 12.9 °F -0.2 °F 5.0 °F 71% 30.15 in 10.0 mi North 10.4 mph - 0.00 in   Scattered Clouds
3:52 PM 12.0 °F -2.7 °F 5.0 °F 73% 30.27 in 10.0 mi North 12.7 mph - 0.00 in   Partly Cloudy
4:20 PM 10.9 °F 0.2 °F 3.9 °F 73% 30.16 in 10.0 mi North 6.9 mph - N/A   Mostly Cloudy
4:50 PM 10.4 °F -1.5 °F 3.2 °F 73% 30.15 in 10.0 mi NNE 8.1 mph - N/A   Scattered Clouds
4:52 PM 10.9 °F 0.2 °F 3.9 °F 73% 30.26 in 10.0 mi North 6.9 mph - N/A   Scattered Clouds
5:52 PM 8.1 °F -2.0 °F 1.9 °F 76% 30.28 in 10.0 mi NE 5.8 mph - N/A   Clear
6:52 PM 8.1 °F -3.2 °F 1.9 °F 76% 30.29 in 10.0 mi NNE 6.9 mph - N/A   Scattered Clouds
7:26 PM 7.0 °F -4.5 °F 1.0 °F 77% 30.17 in 10.0 mi NNE 6.9 mph - N/A   Mostly Cloudy
7:52 PM 6.1 °F -5.6 °F 1.0 °F 80% 30.28 in 10.0 mi North 6.9 mph - N/A   Scattered Clouds
8:08 PM 6.1 °F -4.3 °F 1.0 °F 80% 30.16 in 10.0 mi North 5.8 mph - N/A   Mostly Cloudy
8:24 PM 6.1 °F -2.8 °F 1.0 °F 80% 30.16 in 10.0 mi North 4.6 mph - N/A   Scattered Clouds
8:52 PM 5.0 °F -4.1 °F -0.0 °F 80% 30.29 in 10.0 mi NE 4.6 mph - N/A   Clear
9:52 PM 6.1 °F -5.6 °F 1.0 °F 80% 30.29 in 10.0 mi North 6.9 mph - N/A   Partly Cloudy
10:17 PM 5.0 °F -5.6 °F 1.0 °F 84% 30.16 in 10.0 mi North 5.8 mph - N/A   Mostly Cloudy
10:24 PM 6.1 °F -5.6 °F 1.0 °F 80% 30.16 in 10.0 mi North 6.9 mph - N/A   Scattered Clouds
10:52 PM 6.1 °F -6.8 °F 1.0 °F 80% 30.27 in 10.0 mi NNE 8.1 mph - N/A   Partly Cloudy
11:04 PM 6.1 °F -7.8 °F 1.0 °F 80% 30.14 in 10.0 mi NE 9.2 mph - N/A   Mostly Cloudy
11:49 PM 5.0 °F -5.6 °F 1.4 °F 85% 30.14 in 10.0 mi ENE 5.8 mph - N/A   Scattered Clouds
11:52 PM 5.0 °F -5.6 °F 1.0 °F 84% 30.26 in 10.0 mi ENE 5.8 mph - N/A   Partly Cloudy